Montgomery, NY

3:15 PM EDT on October 18, 2019 (GMT -0400)
Orange County

Weather History for KMGJ - July, 2019

Change the Weather History Date:

Monday, July 22, 2019

  Actual Average (WUND) Record (WUND)
Temperature  
Mean Temperature 73 °F -  
Max Temperature 84 °F - - (-1)
Min Temperature 64 °F - - (-1)
Cooling Degree Days 8    
Growing Degree Days 23 (Base 50)    
Moisture  
Dew Point 65 °F    
Average Humidity 91    
Maximum Humidity 100    
Minimum Humidity 54    
Precipitation  
Precipitation 2.16 in - - ()
Sea Level Pressure  
Sea Level Pressure 29.80 in    
Wind  
Wind Speed 9 mph (NNE)    
Max Wind Speed 21 mph    
Max Gust Speed 28 mph    
Visibility 7 miles    
Events Rain , Thunderstorm    
Averages and records for this station are not official NWS values.
T = Trace of Precipitation, MM = Missing Value Source: NWS Daily Summary

Daily Weather History Graph

Daily Weather History Graph

Search for Another Location

Airport or City:

Astronomy

Jul. 22, 2019 Rise Set
Actual Time 5:42 AM EDT 8:24 PM EDT
Civil Twilight 5:09 AM EDT 8:56 PM EDT
Nautical Twilight 4:29 AM EDT 9:36 PM EDT
Astronomical Twilight 3:42 AM EDT 10:22 PM EDT
Moon 11:40 PM EDT (7/22) 10:59 AM EDT (7/22)
Length of Visible Light 15h 46m
Length of Day
14h 42m
Waning Gibbous, 72% of the Moon is Illuminated
Jul 22
Waning Gibbous
Jul 24
Last Quarter
Jul 31
New
Aug 7
First Quarter
Aug 15
Full

Hourly Weather History & Observations

Time (EDT) Temp. Heat Index Dew Point Humidity Pressure Visibility Wind Dir Wind Speed Gust Speed Precip Events Conditions
12:54 AM 72.0 °F - 71.1 °F 97% 29.87 in 10.0 mi WSW 5.8 mph - N/A   Clear
1:54 AM 72.0 °F - 70.0 °F 93% 29.88 in 10.0 mi SSW 3.5 mph - N/A   Clear
2:54 AM 75.0 °F - 68.0 °F 79% 29.87 in 10.0 mi WNW 6.9 mph - N/A   Mostly Cloudy
3:54 AM 73.0 °F - 66.9 °F 81% 29.81 in 10.0 mi North 8.1 mph - N/A   Clear
4:54 AM 70.0 °F - 68.0 °F 93% 29.84 in 10.0 mi South 3.5 mph - N/A   Clear
5:54 AM 70.0 °F - 68.0 °F 93% 29.86 in 10.0 mi Calm Calm - N/A   Clear
6:54 AM 73.0 °F - 69.1 °F 87% 29.87 in 10.0 mi NNE 4.6 mph - N/A   Clear
7:54 AM 75.9 °F - 64.0 °F 67% 29.87 in 10.0 mi NE 3.5 mph - N/A   Clear
8:54 AM 75.9 °F - 63.0 °F 64% 29.88 in 10.0 mi NNE 4.6 mph - N/A   Overcast
9:54 AM 75.9 °F - 64.9 °F 69% 29.87 in 10.0 mi North 4.6 mph - 0.00 in   Overcast
10:54 AM 79.0 °F - 64.9 °F 62% 29.85 in 10.0 mi ENE 5.8 mph - N/A   Clear
11:54 AM 80.1 °F 81.5 °F 63.0 °F 56% 29.83 in 10.0 mi NE 6.9 mph - N/A   Overcast
12:54 PM 82.0 °F 83.4 °F 64.0 °F 54% 29.81 in 10.0 mi NNE 9.2 mph - N/A   Mostly Cloudy
1:54 PM 72.0 °F - 64.9 °F 78% 29.79 in 2.5 mi NNE 16.1 mph - 0.15 in Rain Light Rain
2:02 PM 72.0 °F - 66.0 °F 81% 29.79 in 10.0 mi NNE 16.1 mph - 0.01 in Rain Light Rain
2:09 PM 71.1 °F - 66.0 °F 84% 29.78 in 10.0 mi NE 15.0 mph - 0.01 in Rain , Thunderstorm Light Rain
2:22 PM 69.1 °F - 66.0 °F 90% 29.79 in 1.8 mi NNE 18.4 mph 21.9 mph 0.16 in Rain Heavy Rain
2:30 PM 69.1 °F - 66.0 °F 90% 29.78 in 3.0 mi NNE 17.3 mph - 0.17 in Rain Light Rain
2:40 PM 68.0 °F - 64.9 °F 90% 29.79 in 10.0 mi NNE 13.8 mph - 0.17 in Rain , Thunderstorm Light Rain
2:54 PM 66.9 °F - 66.0 °F 97% 29.78 in 2.5 mi NNE 16.1 mph - 0.34 in Rain , Thunderstorm Heavy Rain
3:01 PM 66.0 °F - 64.9 °F 96% 29.79 in 1.2 mi North 20.7 mph 27.6 mph 0.15 in Rain , Thunderstorm Heavy Rain
3:07 PM 66.0 °F - 64.9 °F 96% 29.80 in 2.0 mi NNE 18.4 mph 27.6 mph 0.17 in Rain , Thunderstorm Thunderstorms and Rain
3:19 PM 66.0 °F - 64.9 °F 96% 29.79 in 1.5 mi North 16.1 mph 25.3 mph 0.32 in Rain , Thunderstorm Heavy Thunderstorms and Rain
3:23 PM 66.0 °F - 64.9 °F 96% 29.80 in 2.0 mi North 13.8 mph - 0.38 in Rain , Thunderstorm Heavy Thunderstorms and Rain
3:32 PM 66.0 °F - 64.9 °F 96% 29.81 in 2.0 mi NNE 12.7 mph - 0.47 in Rain , Thunderstorm Heavy Thunderstorms and Rain
3:54 PM 66.0 °F - 66.0 °F 100% 29.79 in 8.0 mi NE 11.5 mph - 0.59 in Rain , Thunderstorm Light Rain
4:02 PM 66.0 °F - 66.0 °F 100% 29.80 in 7.0 mi NE 9.2 mph - 0.02 in Rain Rain
4:10 PM 66.0 °F - 66.0 °F 100% 29.79 in 1.8 mi NE 11.5 mph - 0.14 in Rain Heavy Rain
4:17 PM 66.0 °F - 66.0 °F 100% 29.79 in 1.8 mi NE 12.7 mph - 0.19 in Rain , Thunderstorm Heavy Rain
4:19 PM 66.0 °F - 66.0 °F 100% 29.79 in 2.5 mi NE 11.5 mph - 0.19 in Rain , Thunderstorm Heavy Rain
4:21 PM 66.9 °F - 66.0 °F 97% 29.79 in 3.0 mi NNE 12.7 mph - 0.19 in Rain , Thunderstorm Rain
4:35 PM 66.9 °F - 66.0 °F 97% 29.77 in 10.0 mi NNE 9.2 mph - 0.19 in   Overcast
4:54 PM 66.0 °F - 64.9 °F 96% 29.77 in 7.0 mi NNE 10.4 mph - 0.25 in Rain Light Rain
5:13 PM 66.0 °F - 64.9 °F 96% 29.77 in 10.0 mi NNE 16.1 mph 21.9 mph 0.01 in Rain , Thunderstorm Light Rain
5:39 PM 66.0 °F - 64.9 °F 96% 29.77 in 6.0 mi NE 11.5 mph - 0.07 in Rain , Thunderstorm Light Thunderstorms and Rain
5:46 PM 66.0 °F - 64.9 °F 96% 29.78 in 10.0 mi NE 10.4 mph - 0.08 in Rain , Thunderstorm Light Thunderstorms and Rain
5:52 PM 64.4 °F - 64.4 °F 100% 29.77 in 2.5 mi NE 12.7 mph - 0.19 in Rain , Thunderstorm Heavy Rain
5:54 PM 64.9 °F - 64.9 °F 100% 29.77 in 1.8 mi NE 12.7 mph - 0.25 in Rain , Thunderstorm Heavy Rain
6:06 PM 64.9 °F - 64.9 °F 100% 29.76 in 3.0 mi NNE 13.8 mph - 0.08 in Rain , Thunderstorm Rain
6:13 PM 64.9 °F - 64.9 °F 100% 29.76 in 5.0 mi NNE 11.5 mph - 0.09 in Rain Rain
6:37 PM 64.9 °F - 64.9 °F 100% 29.77 in 5.0 mi NE 9.2 mph - 0.17 in Rain Rain
6:54 PM 64.9 °F - 64.0 °F 97% 29.76 in 6.0 mi NNE 12.7 mph - 0.22 in Rain Light Rain
7:20 PM 64.9 °F - 64.0 °F 97% 29.76 in 7.0 mi NE 10.4 mph - 0.04 in Rain Rain
7:54 PM 64.9 °F - 64.0 °F 97% 29.78 in 7.0 mi NE 8.1 mph - 0.16 in Rain Rain
8:54 PM 64.9 °F - 64.0 °F 97% 29.77 in 10.0 mi NNE 8.1 mph - 0.09 in Rain Light Rain
9:23 PM 64.9 °F - 64.0 °F 97% 29.77 in 10.0 mi NNE 12.7 mph - 0.02 in Rain Light Rain
9:36 PM 64.9 °F - 64.0 °F 97% 29.77 in 10.0 mi NNE 6.9 mph - 0.02 in Rain Light Rain
9:54 PM 64.9 °F - 64.0 °F 97% 29.78 in 10.0 mi NNE 6.9 mph - 0.02 in Rain Light Rain
10:54 PM 64.9 °F - 64.0 °F 97% 29.78 in 10.0 mi NE 8.1 mph - 0.07 in Rain Light Rain
11:43 PM 64.9 °F - 64.0 °F 97% 29.79 in 10.0 mi NNE 8.1 mph - 0.01 in Rain Light Rain
11:54 PM 64.9 °F - 64.0 °F 97% 29.79 in 10.0 mi NNE 9.2 mph - 0.02 in Rain Light Rain